Location: El Bakhil
(32.7726°N, 5.5387°W)
Time: 03:11:41
(UTC+00:00)

X-37B - Visible Passes

Search period start: 15 May 2021 00:00
Search period end: 25 May 2021 00:00
Orbit: 386 x 389 km, 45.0° (Epoch: 08 May)

Date Brightness Start Highest point End Pass type
(mag) Time Alt. Az. Time Alt. Az. Time Alt. Az.
15 May 0.6 20:55:00 10° WNW 20:58:07 70° SW 20:58:07 70° SW visible
16 May 1.0 19:56:39 10° NW 19:59:47 53° NNE 20:02:22 14° ESE visible
16 May 3.6 21:34:20 10° W 21:34:39 11° WSW 21:34:39 11° WSW visible
17 May 1.9 20:35:05 10° WNW 20:37:56 30° SW 20:38:58 24° S visible
19 May 3.2 20:15:50 10° WSW 20:17:37 14° SW 20:19:23 10° S visible
